Bradford, PA

1:17 AM EDT on August 18, 2017 (GMT -0400)
Bradford Regional

Weather History for KBFD - July, 2013

Change the Weather History Date:

Friday, July 12, 2013

  Actual Average Record
Temperature  
Mean Temperature 61 °F 65 °F  
Max Temperature 69 °F 78 °F 87 °F (1987)
Min Temperature 53 °F 53 °F 33 °F (1973)
Degree Days  
Heating Degree Days 4 0  
Month to date heating degree days 5 1  
Since 1 June heating degree days 109 146  
Since 1 July heating degree days 5 1  
Cooling Degree Days 0 3  
Month to date cooling degree days 68 30  
Year to date cooling degree days 161 80  
Since 1 June cooling degree days 118 70  
Growing Degree Days 11 (Base 50)    
Moisture  
Dew Point 55 °F    
Average Humidity 78    
Maximum Humidity 93    
Minimum Humidity 63    
Precipitation  
Precipitation 0.00 in 0.14 in 2.40 in (1990)
Month to date precipitation 1.34 1.63  
Year to date precipitation 9.74 23.28  
Sea Level Pressure  
Sea Level Pressure 30.12 in    
Wind  
Wind Speed 5 mph (NE)    
Max Wind Speed 12 mph    
Max Gust Speed 15 mph    
Visibility 10 miles    
Events      
T = Trace of Precipitation, MM = Missing Value Source: NWS Daily Summary

Daily Weather History Graph

Daily Weather History Graph

Search for Another Location

Airport or City:

Trip Planner

Search our weather history database for the weather conditions in past years. The results will help you decide how hot, cold, wet, or windy it might be!

Date:

Astronomy

Jul. 12, 2013 Rise Set
Actual Time 5:50 AM EDT 8:49 PM EDT
Civil Twilight 5:17 AM EDT 9:22 PM EDT
Nautical Twilight 4:34 AM EDT 10:04 PM EDT
Astronomical Twilight 3:45 AM EDT 10:54 PM EDT
Moon 10:10 AM EDT (7/12) 10:53 PM EDT (7/12)
Length of Visible Light 16h 05m
Length of Day
14h 58m
Waxing Crescent, 17% of the Moon is Illuminated
Jul 12
Waxing Crescent
Jul 15
First Quarter
Jul 22
Full
Jul 29
Last Quarter
Aug 6
New

Hourly Weather History & Observations

Time (EDT) Temp. Dew Point Humidity Pressure Visibility Wind Dir Wind Speed Gust Speed Precip Events Conditions
12:53 AM 57.9 °F 54.0 °F 87% 30.03 in 10.0 mi Calm Calm - N/A   Clear
1:53 AM 54.0 °F 51.1 °F 90% 30.04 in 8.0 mi Calm Calm - N/A   Clear
2:53 AM 55.0 °F 52.0 °F 89% 30.06 in 10.0 mi Calm Calm - N/A   Clear
3:53 AM 55.9 °F 54.0 °F 93% 30.06 in 8.0 mi North 3.5 mph - N/A   Clear
4:53 AM 55.9 °F 53.1 °F 90% 30.07 in 7.0 mi North 4.6 mph - N/A   Scattered Clouds
5:53 AM 57.0 °F 54.0 °F 89% 30.08 in 8.0 mi NNE 3.5 mph - N/A   Scattered Clouds
6:53 AM 57.0 °F 54.0 °F 89% 30.09 in 8.0 mi NE 4.6 mph - N/A   Clear
7:53 AM 59.0 °F 55.0 °F 87% 30.11 in 10.0 mi ENE 5.8 mph - N/A   Clear
8:53 AM 62.1 °F 57.0 °F 84% 30.13 in 10.0 mi NE 4.6 mph - N/A   Clear
9:53 AM 64.0 °F 55.9 °F 75% 30.13 in 10.0 mi East 8.1 mph - N/A   Partly Cloudy
10:53 AM 64.0 °F 55.9 °F 75% 30.14 in 10.0 mi NE 8.1 mph - N/A   Clear
11:53 AM 64.9 °F 55.9 °F 73% 30.15 in 10.0 mi NE 6.9 mph - N/A   Clear
12:53 PM 66.0 °F 57.0 °F 73% 30.15 in 10.0 mi NE 8.1 mph - N/A   Clear
1:53 PM 66.9 °F 57.0 °F 70% 30.15 in 10.0 mi NE 8.1 mph - N/A   Clear
2:53 PM 68.0 °F 57.0 °F 68% 30.14 in 10.0 mi ENE 6.9 mph - N/A   Clear
3:53 PM 68.0 °F 55.9 °F 65% 30.15 in 10.0 mi NE 4.6 mph - N/A   Clear
4:53 PM 68.0 °F 57.0 °F 68% 30.14 in 10.0 mi ENE 6.9 mph - N/A   Clear
5:53 PM 68.0 °F 55.9 °F 65% 30.13 in 10.0 mi Variable 3.5 mph - N/A   Clear
6:53 PM 66.9 °F 55.0 °F 66% 30.13 in 10.0 mi NE 9.2 mph - N/A   Clear
7:53 PM 64.9 °F 55.0 °F 70% 30.14 in 10.0 mi NE 4.6 mph - N/A   Clear
8:53 PM 64.0 °F 55.0 °F 73% 30.15 in 10.0 mi NNE 3.5 mph - N/A   Clear
9:53 PM 62.1 °F 55.9 °F 80% 30.17 in 10.0 mi North 4.6 mph - N/A   Clear
10:53 PM 62.1 °F 55.0 °F 78% 30.18 in 10.0 mi NNE 3.5 mph - N/A   Clear
11:53 PM 61.0 °F 55.0 °F 81% 30.18 in 10.0 mi Calm Calm - N/A   Clear